Wind_Speed
76 76 76 76 75 75 76 76 75 75 75 74 74 74 74 73 73 72 72 72 71 70 70 71 70 70 69 69 68 67 68 69 70 70 69 63 56 52 52 50 42 38 38 38 39 41 41 38 37 40 43 46 48 50 52 53 53 51 50 48 47 46 46 46 45 46 50 52 53 53 51 50 50 50 49 48 47 47 46 47 50 52 53 55 63
76 76 75 75 75 75 75 75 75 74 74 73 73 73 73 72 72 71 70 70 69 68 68 69 69 68 66 66 66 66 66 67 67 67 65 58 52 49 48 44 39 36 36 36 36 37 39 38 35 37 41 44 46 48 49 50 51 50 47 46 45 45 44 45 45 46 48 51 52 52 51 49 48 48 47 47 46 45 44 45 47 49 51 53 59
76 75 75 75 75 75 75 74 74 73 73 73 73 72 72 71 71 70 69 68 67 66 66 66 66 65 64 64 65 64 64 65 64 64 61 54 49 47 45 41 37 34 34 37 36 32 32 35 36 38 41 43 44 45 46 48 48 48 46 45 44 43 43 44 44 45 47 49 50 51 50 48 47 46 46 45 44 43 42 42 44 46 48 50 56
76 75 74 74 74 74 74 74 73 73 72 72 72 72 71 70 70 69 68 67 66 65 64 64 63 63 63 63 63 63 63 62 61 61 56 50 46 45 42 39 36 34 32 35 38 35 31 32 34 38 41 43 43 43 44 45 45 45 44 43 43 43 43 43 44 45 46 48 49 49 49 48 46 45 44 44 43 42 41 41 41 43 45 47 53
76 75 74 73 73 73 73 73 73 73 72 72 71 71 70 69 69 68 67 66 64 63 62 62 62 62 62 61 62 61 61 59 59 58 53 46 44 43 40 37 34 35 34 33 35 37 37 37 38 40 42 42 41 42 42 43 43 43 42 41 41 42 42 43 43 45 46 47 48 48 48 47 45 44 43 42 42 41 40 40 40 41 43 45 49
77 75 74 73 72 72 72 72 72 72 71 71 70 69 68 68 67 66 65 64 62 62 61 60 60 60 60 59 60 59 58 56 56 55 50 44 42 41 39 36 33 34 36 36 36 36 38 40 42 42 41 40 40 40 41 41 41 41 40 40 41 41 41 42 43 44 45 46 47 47 47 46 44 43 42 41 41 40 39 39 39 40 41 43 46
76 74 73 72 71 71 70 70 70 70 69 69 68 67 66 66 65 64 63 62 61 60 60 59 58 58 58 58 58 57 55 53 53 53 48 43 40 39 38 36 34 34 36 37 39 39 39 39 40 41 40 39 39 39 40 40 40 40 39 40 41 40 41 42 43 44 45 45 45 46 46 45 43 42 41 40 40 40 39 38 38 39 40 40 43
74 72 71 70 69 68 68 68 67 67 66 66 65 65 64 64 63 62 61 61 60 59 58 57 56 56 56 56 57 55 53 51 50 51 47 42 39 38 37 36 35 35 36 36 38 39 39 39 39 39 38 38 39 39 39 39 39 39 39 40 41 40 41 42 42 43 43 44 44 45 45 44 42 41 40 40 40 39 38 37 37 37 38 39 40
71 69 68 67 67 66 66 65 65 64 64 63 63 63 62 62 61 60 59 59 59 58 57 56 55 55 55 55 56 54 51 49 48 49 47 41 38 37 37 36 35 35 35 35 36 36 37 37 37 38 38 37 38 40 40 39 38 38 39 40 41 41 41 41 42 42 42 42 43 44 43 42 41 40 39 39 39 39 38 37 36 36 37 38 39
67 66 64 64 64 64 63 63 62 62 62 61 61 61 60 59 59 59 59 59 58 57 57 56 55 54 54 55 55 52 49 47 47 47 45 40 37 36 36 35 35 35 35 34 34 34 35 34 35 37 38 37 37 39 40 40 38 37 38 40 41 41 41 41 41 41 41 42 43 43 42 41 40 39 39 39 38 38 37 37 36 36 35 37 38
64 63 62 61 61 61 61 61 60 60 60 60 59 59 58 57 57 57 58 57 57 57 56 55 55 54 54 54 53 51 47 45 45 45 44 38 36 35 35 34 34 33 33 33 34 33 33 33 34 36 39 40 39 39 39 39 39 38 38 39 41 42 41 41 40 41 41 41 42 41 40 40 39 38 38 38 38 38 37 37 36 35 34 35 37
62 61 60 60 60 60 59 59 58 58 58 57 57 56 56 56 57 57 57 56 56 56 55 55 54 53 53 52 52 49 46 44 43 43 42 38 35 34 34 34 33 32 32 32 33 33 33 33 34 35 38 40 41 40 38 38 38 39 38 39 41 42 41 40 39 40 40 40 40 40 39 39 38 37 37 38 38 38 37 37 36 35 34 35 36
62 61 60 60 59 58 57 57 56 56 55 55 55 55 55 56 56 56 56 56 55 55 55 54 53 53 52 51 51 48 45 42 41 42 41 37 35 34 33 33 33 31 31 32 33 33 33 33 34 35 36 38 40 41 40 38 38 39 39 40 41 41 40 38 38 39 39 39 39 39 39 38 37 37 37 37 38 38 37 37 36 35 35 34 35
62 60 59 58 57 56 55 54 54 54 54 54 55 55 55 55 56 55 55 55 54 54 54 53 53 52 52 51 50 47 44 42 40 40 39 37 35 34 32 32 32 32 31 32 32 32 33 33 33 34 36 37 38 41 41 39 38 38 39 40 41 40 38 37 38 39 39 38 39 39 38 38 37 36 36 37 37 38 37 37 36 35 35 34 34
61 59 57 55 54 54 53 53 53 54 54 54 54 55 55 55 54 54 54 54 54 54 53 53 52 52 52 52 50 46 44 42 39 39 39 37 35 34 31 30 31 32 32 32 31 31 32 32 33 34 35 36 37 39 41 40 38 38 38 39 40 39 37 37 38 38 38 38 38 38 37 37 36 36 36 37 37 38 37 36 36 35 35 34 34
60 58 56 54 53 53 53 53 53 54 54 54 54 54 54 54 54 54 53 53 53 53 53 52 52 52 52 52 49 45 43 41 39 38 38 37 35 34 31 31 31 31 31 32 31 31 31 31 33 33 34 35 36 37 39 39 38 37 38 39 39 38 36 37 37 37 37 37 37 37 36 36 36 36 36 37 37 38 37 36 36 35 35 35 34
60 58 56 55 54 54 54 54 54 54 55 55 54 54 54 54 54 54 53 53 53 53 53 53 52 53 53 51 48 44 42 40 38 37 37 36 35 33 32 31 32 31 30 30 31 31 30 31 32 33 34 35 35 36 37 38 38 37 38 39 38 36 36 36 37 36 36 37 37 36 35 35 36 36 36 37 37 38 37 36 36 36 35 35 35
60 59 57 56 56 55 56 56 55 55 55 55 55 55 55 54 54 54 54 53 53 53 53 53 53 53 52 50 46 43 40 39 38 36 36 36 35 33 32 32 32 31 30 29 30 31 31 31 32 33 33 34 34 35 36 36 36 37 38 38 37 35 36 36 36 36 36 36 36 36 35 35 36 36 36 37 37 37 37 36 35 35 35 35 34
60 59 58 58 57 57 57 57 57 57 57 56 56 55 54 54 54 54 54 53 53 53 53 53 52 52 50 47 44 41 39 38 37 35 35 36 35 33 32 32 32 31 30 29 30 31 32 32 32 32 33 33 34 35 35 35 36 37 38 37 35 35 36 36 35 35 35 36 36 35 35 35 35 36 36 36 36 36 36 35 35 35 35 34 33
60 60 59 59 59 59 59 59 58 58 57 57 56 55 55 54 54 54 53 53 52 52 52 52 51 50 48 45 42 40 38 37 36 35 34 35 34 32 31 32 32 31 30 29 30 31 32 33 32 31 32 33 33 34 34 35 36 37 37 36 35 35 36 35 34 35 35 35 35 35 35 35 35 35 36 36 36 36 36 35 35 35 34 33 32
60 60 59 59 59 59 59 59 59 58 58 57 56 56 55 55 54 53 53 52 52 51 51 50 49 47 45 43 40 38 36 35 35 34 33 34 33 31 29 30 31 31 30 29 30 32 33 33 32 31 31 33 33 33 34 35 37 37 36 35 35 36 35 34 34 34 34 35 35 35 35 34 34 34 35 35 35 35 35 35 34 34 34 32 31
60 59 59 59 59 58 59 58 58 58 57 56 56 55 55 54 54 53 53 52 51 51 50 48 46 44 43 41 38 36 35 34 33 33 32 32 32 30 28 28 29 30 30 30 31 32 33 33 32 31 31 32 33 33 34 36 37 37 36 35 35 35 34 33 33 33 34 34 34 34 34 33 33 34 35 35 35 34 34 34 33 33 33 32 31
62 61 60 60 60 59 59 59 58 58 57 56 56 55 54 54 54 53 53 52 51 50 48 46 44 42 40 39 37 35 33 33 32 32 31 31 30 29 28 27 28 29 30 31 32 33 33 32 31 30 31 32 33 33 35 36 37 36 35 35 34 34 33 32 32 32 33 33 33 33 33 33 34 34 35 35 34 33 33 33 33 32 32 32 31
63 63 62 62 61 61 60 60 59 59 58 57 56 55 54 54 53 53 52 51 50 48 46 44 42 40 38 37 35 34 32 32 31 31 30 30 29 29 28 27 27 29 31 32 32 32 33 32 31 31 31 32 33 34 35 37 37 36 35 34 33 33 32 30 30 32 32 32 33 33 33 33 34 34 34 34 34 32 32 32 33 33 32 31 30
63 63 62 61 61 60 60 59 59 58 57 57 56 55 54 53 52 51 50 49 48 47 45 42 40 39 37 35 34 32 31 31 31 30 30 29 28 29 30 29 28 28 31 32 32 32 33 33 31 31 32 33 34 35 36 37 37 35 33 32 32 31 29 29 31 33 32 32 32 33 33 33 33 34 34 33 32 32 32 32 33 33 32 31 30
63 62 61 61 60 59 58 57 56 55 55 55 54 53 52 51 50 49 48 47 46 45 43 41 39 37 36 34 32 31 30 30 30 29 29 29 28 29 30 30 30 29 31 33 33 32 33 32 31 32 33 34 35 35 36 36 35 32 30 29 29 29 29 30 32 32 32 32 32 32 33 33 32 33 33 32 31 31 32 33 33 34 33 31 30
63 62 61 60 59 58 57 56 55 54 53 53 52 51 50 49 48 47 46 45 44 43 42 40 38 36 34 32 31 30 30 29 29 29 29 30 29 29 29 30 30 30 31 33 33 32 32 32 32 33 34 35 35 35 35 34 32 30 29 29 30 31 32 33 33 32 31 31 32 32 32 31 31 32 32 32 32 31 32 33 34 34 33 32 30
64 63 62 61 60 59 57 56 54 53 52 51 51 51 49 47 46 45 45 44 43 41 40 39 37 35 33 31 30 29 29 29 29 28 29 30 30 30 29 30 30 30 31 32 33 32 32 33 33 33 34 35 35 34 33 32 31 29 29 30 31 33 34 33 33 32 31 30 31 31 31 31 30 31 32 32 32 31 31 33 34 35 33 31 29
64 63 61 60 60 59 58 57 55 53 52 50 50 51 50 48 44 43 43 43 42 40 39 38 36 34 32 30 29 29 29 29 28 28 28 30 31 31 30 30 30 30 31 32 33 32 32 32 33 33 34 34 34 33 31 30 30 29 29 30 32 34 34 33 32 30 29 30 31 31 31 30 30 30 31 32 32 31 31 33 35 34 33 32 30
63 61 59 58 58 56 56 55 54 53 52 50 49 50 51 50 46 42 41 41 41 39 37 36 34 32 30 29 29 29 29 29 29 28 28 29 30 30 30 29 29 30 31 32 32 32 32 32 33 34 34 34 32 31 30 30 30 30 30 31 33 34 34 32 31 30 30 30 31 30 30 30 30 30 31 32 32 31 31 32 34 34 33 32 31
61 59 57 56 55 54 53 52 51 51 50 49 48 47 48 49 49 45 41 40 40 38 36 34 33 31 30 29 29 29 30 29 29 28 28 28 29 29 29 29 29 30 30 31 31 32 32 33 34 34 33 32 31 30 30 30 31 30 30 32 33 34 34 33 32 31 30 30 30 30 30 30 30 29 29 30 31 30 30 31 32 32 32 32 32
60 58 56 54 53 52 51 49 49 47 47 46 45 44 43 43 44 44 42 39 38 37 35 33 32 30 29 29 29 29 30 29 29 28 28 28 29 29 29 29 30 30 30 30 31 31 32 33 33 33 32 31 30 30 30 31 31 30 31 32 33 34 34 33 31 30 30 30 30 30 30 29 28 28 28 29 30 30 30 31 31 31 32 32 32
62 60 58 55 53 51 49 47 46 45 44 42 41 40 39 37 36 38 38 37 35 34 33 32 30 29 29 28 28 29 29 29 29 28 28 28 28 28 28 29 30 31 31 31 31 32 33 33 33 32 31 30 30 30 30 31 31 31 31 33 34 34 33 32 31 31 31 30 29 29 28 28 27 27 27 28 30 30 31 31 31 32 32 32 33
63 62 59 56 52 49 47 45 44 42 42 41 39 37 36 35 33 33 33 33 32 31 31 30 29 28 27 27 28 28 28 29 29 28 27 27 28 28 28 30 31 32 32 32 32 32 33 33 33 32 31 30 30 30 30 31 31 32 33 34 34 34 33 32 32 31 30 29 28 28 28 28 28 27 27 28 29 31 31 31 32 31 31 32 33
64 61 57 54 50 47 45 43 42 41 39 39 38 36 35 34 33 32 30 30 29 29 28 27 26 26 26 26 27 28 28 29 29 28 27 28 29 29 29 30 31 32 32 32 32 32 32 32 32 32 31 30 30 31 32 32 33 34 34 35 34 34 33 32 31 30 29 28 28 29 29 29 28 27 27 27 29 30 31 32 32 32 31 32 33
62 59 54 49 46 44 42 41 40 39 38 38 37 36 35 34 33 32 30 28 27 26 26 25 24 24 24 25 27 28 29 29 29 29 29 29 30 30 30 30 31 32 32 32 32 32 32 32 32 32 31 31 31 31 32 33 33 34 34 34 34 33 32 32 31 30 29 29 29 29 29 29 28 27 27 27 27 29 30 32 33 32 32 31 32
61 56 51 46 43 41 40 39 39 38 38 38 37 37 36 35 33 32 30 28 26 25 24 23 23 23 23 24 25 27 28 29 30 30 29 30 30 30 30 31 31 32 32 32 32 32 32 32 32 31 31 31 31 31 32 32 33 33 34 34 34 33 33 32 31 30 29 28 28 29 29 29 29 28 27 27 27 28 29 30 32 32 32 31 32
58 54 49 44 42 40 39 38 37 37 37 37 36 36 35 34 33 31 29 27 26 24 23 22 22 22 23 23 24 26 28 29 31 31 31 31 31 32 32 31 32 32 32 32 32 32 32 32 32 31 31 31 31 31 32 32 33 33 34 34 34 34 33 32 31 30 29 28 28 29 29 29 29 28 28 27 27 27 27 28 30 31 32 32 32
55 51 47 43 41 40 38 37 36 36 35 35 35 34 33 32 31 29 28 26 25 24 23 22 21 21 22 23 23 24 26 29 31 31 31 31 32 33 33 33 33 33 33 32 32 33 33 33 32 32 31 32 32 32 32 32 33 33 34 34 34 34 33 33 32 31 30 29 29 29 29 29 29 29 28 28 27 27 27 27 29 30 31 32 32
54 49 45 42 40 39 38 37 36 35 34 34 33 32 31 30 29 27 26 25 24 23 22 21 20 21 22 23 23 24 25 27 30 31 32 32 32 33 34 34 34 33 33 33 33 33 33 33 33 32 32 32 33 33 33 32 33 33 34 34 34 34 34 33 32 31 30 30 29 29 29 29 29 29 28 28 27 27 27 28 29 30 31 32 32
53 49 45 42 39 38 37 36 35 34 33 32 31 30 29 28 27 26 25 24 23 22 21 21 20 20 21 22 24 24 25 26 29 31 32 32 32 33 34 35 35 34 34 33 33 34 34 34 34 33 33 33 33 33 33 33 33 33 34 34 35 35 34 34 33 32 31 30 30 29 29 29 29 28 28 28 27 27 27 28 29 30 31 32 33
53 50 46 42 39 37 36 35 34 33 33 31 30 30 29 27 26 25 24 23 23 22 21 20 20 19 20 21 24 25 26 26 28 30 32 32 32 33 34 35 35 35 34 34 34 34 34 34 34 34 33 33 33 33 33 33 33 33 34 35 35 35 35 34 33 32 31 31 30 30 30 29 29 28 28 28 27 27 28 28 29 30 31 32 34
52 50 46 43 40 37 36 34 33 32 32 31 29 29 28 27 26 25 24 22 22 21 20 20 19 19 19 20 23 25 27 27 28 29 31 32 33 33 34 35 36 36 35 35 35 35 35 35 35 34 34 34 34 33 33 33 33 34 34 35 35 35 35 35 34 33 32 31 31 31 30 30 29 29 28 28 28 28 28 29 30 31 32 33 34
51 49 47 44 41 39 36 35 33 32 31 30 29 28 27 26 25 25 24 22 21 20 20 19 19 19 19 20 21 24 27 28 29 29 30 32 32 33 34 35 36 36 35 35 35 35 35 35 35 35 35 34 34 34 33 33 34 34 35 35 35 35 35 35 35 34 33 32 32 31 31 30 30 30 29 29 29 29 29 30 30 31 32 33 34
49 48 46 43 41 39 36 35 33 32 31 30 29 28 27 26 25 24 24 23 21 20 19 19 18 18 19 20 21 23 26 28 29 30 31 31 32 33 34 35 35 35 36 36 35 35 36 36 36 35 35 35 35 34 34 34 34 34 35 36 36 36 36 36 35 34 33 33 32 32 32 31 31 30 30 30 29 29 30 30 31 32 33 33 34
47 46 45 43 40 38 36 34 33 32 31 30 29 28 27 26 25 24 23 22 22 20 20 19 18 18 18 19 21 22 24 27 29 30 31 32 32 33 34 35 35 35 35 36 36 36 36 36 36 36 36 36 35 35 35 34 34 34 35 36 37 37 37 37 36 35 34 34 33 33 33 32 32 31 31 30 30 30 30 31 32 32 33 34 34
46 45 43 42 40 38 36 34 33 31 30 30 29 27 26 25 24 23 22 21 21 20 19 19 18 18 18 19 20 21 24 26 29 31 31 32 32 33 34 35 36 36 36 36 36 36 36 37 37 37 36 36 36 36 35 35 35 35 35 36 36 37 37 37 36 36 35 34 34 34 34 33 33 32 32 31 31 31 31 31 32 33 34 34 34
45 44 43 42 40 38 36 35 33 31 30 29 28 27 26 25 24 23 22 21 20 20 19 19 18 18 17 18 19 21 22 25 28 30 32 32 32 33 34 35 36 36 36 36 36 36 36 37 37 37 37 37 36 36 36 35 35 35 35 35 36 36 37 37 37 36 36 35 35 35 35 34 34 33 32 32 31 31 31 31 32 33 34 35 35
45 43 42 41 40 39 37 35 33 31 30 29 28 27 26 25 24 23 22 21 20 19 19 19 19 18 18 17 18 19 21 23 26 29 32 33 33 33 33 34 35 36 36 36 36 36 36 36 37 37 37 37 37 37 36 36 36 35 35 35 35 36 36 37 37 37 36 36 36 35 35 35 35 34 33 32 32 31 31 31 32 32 33 34 35
45 44 42 41 40 39 38 36 35 33 31 29 28 27 26 25 24 23 22 22 21 20 19 19 19 18 18 18 17 18 20 22 24 27 30 33 34 35 34 34 34 35 36 36 36 37 36 36 37 37 38 38 37 37 37 37 36 36 35 35 35 35 36 36 37 37 37 37 36 36 36 36 35 35 34 33 33 32 32 31 31 32 32 33 34
45 44 43 41 40 38 37 36 35 34 32 30 29 27 26 25 24 23 22 22 21 21 20 19 19 18 18 18 18 18 18 20 23 25 28 31 33 35 35 35 35 35 35 36 36 36 37 36 37 37 38 38 38 38 37 37 37 37 36 36 35 35 35 36 36 36 37 37 37 37 37 36 36 36 35 35 34 33 33 32 32 32 32 33 33
Wind_Direction
298 297 296 296 295 294 294 293 293 293 293 293 294 294 295 295 296 296 297 297 298 298 298 299 299 299 300 301 302 303 304 306 306 308 308 305 302 298 295 291 281 270 260 249 249 249 244 247 253 251 250 250 250 249 247 245 244 244 244 246 248 249 249 250 249 249 251 249 247 246 244 243 244 245 245 245 246 247 249 250 252 253 250 242 232
296 296 296 295 295 294 294 293 293 293 293 293 294 294 294 295 295 296 296 296 296 297 297 298 299 300 301 302 303 304 305 306 307 308 307 303 300 297 292 285 278 271 258 248 251 251 245 246 250 251 252 251 250 250 248 246 245 244 244 245 248 248 247 250 250 249 250 249 247 246 244 243 244 245 245 245 246 247 248 250 251 252 250 243 234
295 295 295 295 295 294 294 293 293 294 294 294 294 294 295 295 295 295 295 295 295 295 296 297 298 299 300 301 302 303 304 306 307 309 306 301 298 295 290 282 274 268 259 249 248 249 246 245 245 250 252 250 249 249 247 247 245 244 244 245 246 246 247 250 250 249 249 248 246 245 243 243 244 245 246 246 247 247 248 249 250 250 249 244 235
295 295 294 294 294 294 294 294 294 294 294 294 294 294 295 295 294 294 294 294 294 295 295 296 297 297 298 299 301 302 304 305 307 309 305 299 296 293 288 281 271 263 259 253 247 246 248 246 245 249 251 249 248 247 246 246 244 243 244 244 245 246 248 251 251 249 248 247 246 244 243 243 243 245 246 246 247 248 248 249 249 248 247 244 237
295 295 294 294 294 294 294 294 294 294 294 294 294 294 294 294 294 294 294 294 294 294 294 294 295 296 297 299 300 302 303 305 307 308 304 295 294 292 285 279 270 260 256 253 248 245 246 248 249 251 250 248 247 245 244 244 244 243 244 244 245 247 250 251 251 250 247 246 245 243 243 243 243 244 245 246 247 248 248 249 249 248 246 243 238
296 295 294 294 293 293 293 293 293 293 293 293 293 293 294 293 293 293 293 293 293 293 294 294 294 296 297 298 300 301 302 304 306 307 302 292 290 290 283 275 268 261 256 253 249 248 247 248 250 250 249 247 245 243 243 244 244 244 244 244 245 248 250 252 252 250 246 244 243 242 242 243 243 244 245 246 247 248 248 248 249 248 245 243 239
298 296 295 294 293 293 292 292 293 293 293 293 293 292 293 292 292 293 293 293 293 293 293 293 293 295 296 297 299 301 301 302 304 306 301 290 287 287 282 273 264 260 259 256 253 253 251 250 250 248 246 246 244 242 241 242 244 244 244 245 246 248 250 251 252 249 245 244 242 240 242 243 243 244 245 245 247 248 248 248 248 248 246 243 239
299 297 296 295 294 293 293 293 293 293 292 292 292 292 292 292 292 292 293 293 292 292 292 292 293 294 295 297 299 300 300 299 301 305 300 289 284 285 280 272 264 259 259 258 256 256 255 253 251 246 243 244 243 242 241 241 243 244 245 245 246 248 250 251 251 247 244 243 241 239 241 242 243 244 245 245 247 248 248 247 247 248 247 244 240
301 299 297 296 295 295 294 294 293 293 292 291 291 291 291 292 292 292 292 292 292 292 292 293 293 294 295 297 299 299 298 297 298 303 300 288 282 284 279 271 264 258 257 258 258 258 257 256 253 246 242 242 242 242 241 241 242 244 246 245 246 248 249 251 250 246 243 242 239 238 240 241 243 244 245 246 247 248 248 248 247 247 247 244 241
303 301 299 297 296 295 294 294 293 292 291 291 291 291 292 292 293 293 293 293 293 293 294 294 294 295 295 296 298 297 295 295 296 301 300 288 280 282 279 271 265 258 255 256 257 258 258 257 254 248 243 240 241 242 242 241 242 245 246 246 246 247 248 250 248 245 243 241 238 237 238 240 242 244 245 246 247 247 248 248 247 247 246 245 242
305 303 300 298 297 296 295 294 293 292 292 292 292 292 293 293 293 293 292 292 293 293 294 294 294 294 295 295 297 295 293 293 294 298 299 288 278 279 277 271 265 259 255 256 257 258 259 256 253 249 245 241 240 242 243 242 241 244 246 247 246 246 248 248 246 244 242 240 237 236 237 240 241 243 245 246 247 247 248 248 248 247 246 245 243
308 305 302 300 298 296 295 294 293 293 293 293 293 294 294 293 293 293 292 293 293 293 293 293 293 294 294 296 297 294 291 291 292 295 297 288 278 278 276 270 264 259 255 256 256 256 256 253 250 248 246 242 240 241 243 242 241 243 247 247 245 245 247 248 245 243 242 239 236 235 237 239 241 242 244 246 247 248 248 248 248 246 245 244 243
310 307 304 302 299 297 296 295 295 295 295 295 295 295 294 294 293 294 294 294 294 294 293 293 293 294 295 296 297 293 289 288 289 291 294 289 277 275 274 268 263 258 253 252 254 254 252 250 247 246 245 243 240 240 241 242 241 244 247 246 244 245 247 247 243 241 240 238 235 235 236 239 241 242 244 246 247 248 248 248 248 247 245 244 243
311 308 305 303 301 299 298 298 297 297 296 296 296 295 295 294 294 295 295 295 295 294 294 294 294 295 295 296 297 293 287 285 287 287 290 288 278 273 272 267 260 256 253 251 250 251 250 248 245 244 243 242 240 238 238 240 242 244 245 244 243 245 246 244 241 240 239 236 233 234 236 239 241 242 243 246 246 247 249 249 248 247 246 245 243
311 309 306 304 303 301 300 299 298 297 297 296 296 296 296 296 296 296 296 296 296 295 295 295 295 295 296 296 296 292 285 283 284 285 285 285 278 271 269 266 257 252 251 251 250 248 247 245 244 242 241 241 239 237 236 238 241 243 243 242 243 244 244 242 240 239 237 234 232 234 236 239 241 242 243 245 247 248 249 249 249 248 246 245 244
311 309 307 305 303 302 300 299 299 298 298 298 298 298 298 298 298 297 297 297 296 296 296 296 296 296 296 296 295 291 284 281 282 282 281 281 277 269 265 263 257 249 248 250 250 248 244 242 241 241 240 240 238 235 235 238 240 241 241 241 242 243 242 240 238 237 235 233 232 233 236 239 241 242 243 245 247 248 249 249 248 247 246 245 244
311 309 307 305 304 302 301 300 300 299 299 299 300 300 299 299 299 298 298 297 297 297 297 297 296 296 296 296 294 289 282 279 280 281 278 277 276 269 262 260 256 249 246 247 248 247 243 239 239 240 239 239 236 234 234 237 239 239 240 241 242 242 241 238 237 235 233 231 232 233 236 238 241 242 243 245 247 248 248 248 247 246 245 245 245
311 309 308 306 305 304 303 302 301 301 301 301 301 300 300 300 299 299 298 298 297 298 297 296 296 295 295 294 292 287 280 276 278 279 276 274 274 268 260 257 254 249 246 245 245 245 242 238 237 239 240 238 235 234 235 236 237 237 239 240 241 241 239 237 235 233 231 231 232 233 235 238 241 242 244 245 247 248 248 247 245 244 244 244 245
311 310 308 307 306 305 304 303 303 302 302 302 301 301 300 300 299 299 298 298 297 297 296 295 295 295 294 293 290 284 278 274 275 277 275 272 272 268 258 255 253 249 245 244 243 242 241 239 238 239 240 238 235 234 234 233 234 236 237 239 240 239 237 235 233 231 230 230 232 234 236 238 241 243 244 245 246 247 247 246 244 243 242 243 243
312 310 309 307 307 306 305 305 304 303 303 303 302 302 301 300 300 299 298 297 297 296 296 295 295 295 293 291 288 282 276 273 274 276 273 270 270 267 258 253 252 249 246 244 241 240 241 240 239 239 239 237 235 233 232 231 232 234 236 238 238 236 235 233 231 229 229 230 232 234 237 239 241 243 244 246 246 246 246 244 242 241 240 240 242
312 311 309 308 307 307 306 306 305 305 304 304 303 302 302 301 300 299 298 297 297 296 296 296 295 294 292 289 286 280 274 271 273 273 271 268 267 265 256 251 250 248 246 244 241 240 240 240 239 239 238 236 234 232 231 231 232 234 236 237 237 235 233 231 229 228 229 230 232 235 237 240 242 243 244 245 245 245 244 242 239 238 238 238 239
312 311 310 309 308 307 307 306 305 305 304 303 303 302 301 300 300 299 298 298 297 297 297 296 294 292 290 287 284 278 272 270 271 271 268 265 263 260 254 250 250 248 246 244 242 241 240 239 239 238 236 234 233 231 231 232 233 234 236 236 235 234 231 229 227 228 229 231 233 235 237 239 240 242 243 243 243 242 241 239 236 234 234 236 237
311 310 309 309 308 307 306 305 305 304 303 303 302 301 301 300 300 299 298 298 298 297 296 295 293 291 288 285 282 276 270 268 269 268 265 262 259 255 251 251 251 250 247 245 243 241 240 239 239 237 234 232 232 231 231 233 233 234 235 235 234 232 229 227 226 228 229 231 233 236 237 238 239 240 241 242 241 239 237 235 233 230 230 232 235
310 309 308 307 306 305 305 304 304 303 303 302 301 301 300 300 299 298 298 297 297 296 295 294 292 289 286 283 279 274 268 266 267 266 262 259 256 252 250 251 252 251 248 246 244 242 239 237 236 234 231 230 230 230 231 232 233 233 234 234 232 231 228 225 225 227 228 231 233 236 237 239 239 240 241 241 241 237 233 231 229 227 227 229 233
311 309 308 307 306 306 305 304 304 303 303 302 301 300 299 298 298 297 297 296 295 295 293 292 291 288 284 281 277 272 267 265 266 264 259 256 254 250 249 251 253 252 249 246 244 241 239 236 234 231 229 228 229 230 231 233 233 233 234 233 231 229 225 223 225 227 228 230 233 235 238 239 240 241 241 241 239 234 231 228 226 224 224 228 232
312 311 310 309 308 307 306 305 304 304 303 302 301 300 299 298 297 296 296 295 294 294 293 291 290 287 283 279 275 270 265 263 264 262 256 251 251 251 250 251 254 253 249 246 243 241 237 234 231 228 227 228 229 230 232 234 234 234 232 230 227 226 224 223 225 226 227 230 233 235 238 240 241 242 242 240 236 231 228 226 224 222 223 226 231
312 311 310 309 308 307 307 306 305 304 303 302 301 300 299 298 297 297 296 296 295 294 292 290 288 285 281 277 272 267 262 260 261 259 252 248 248 251 252 253 254 252 248 244 241 238 233 230 228 226 226 227 229 230 232 234 234 232 227 222 220 222 223 223 224 226 227 230 233 235 238 240 240 241 241 239 234 230 226 223 222 222 222 225 229
312 311 309 308 307 306 306 305 305 304 303 302 301 300 299 297 297 297 297 295 294 293 292 289 287 283 279 274 269 264 259 257 258 256 250 245 246 250 253 254 252 248 243 240 237 233 229 228 227 226 227 228 229 231 232 233 232 230 224 217 216 220 223 223 224 226 228 230 233 235 237 238 238 239 239 238 234 229 225 221 220 220 222 225 229
313 312 310 308 307 306 304 304 303 303 302 302 303 302 301 298 296 297 298 296 294 292 290 288 285 282 277 271 265 260 256 253 254 254 249 244 245 249 253 253 248 243 238 235 233 231 229 228 228 228 228 229 230 230 231 230 229 227 221 215 215 219 223 225 225 226 227 229 232 234 236 237 237 237 237 237 234 229 224 221 219 219 221 224 228
315 313 311 310 308 306 305 303 302 302 301 301 302 303 303 302 299 298 299 298 295 292 290 287 284 280 275 268 262 257 253 251 250 251 247 243 243 247 250 249 243 237 233 231 230 230 229 229 229 229 229 230 230 229 228 228 227 224 219 214 215 218 222 225 226 225 226 228 231 234 236 236 236 236 235 235 233 229 225 221 219 217 219 223 227
318 317 315 313 310 308 307 306 305 304 303 302 301 301 303 303 301 299 298 298 295 293 289 286 282 277 272 265 258 254 251 248 247 247 245 242 241 244 246 243 237 232 230 228 228 229 230 230 230 230 230 230 229 228 228 228 227 224 219 216 216 218 221 223 225 226 228 230 231 233 235 236 236 236 234 234 233 230 226 223 220 218 218 221 225
322 320 319 317 314 312 310 309 308 307 306 306 305 304 303 303 302 300 298 296 294 292 289 285 280 275 269 262 255 251 248 246 245 246 244 240 239 241 242 238 232 229 227 227 227 228 230 230 231 230 229 228 228 227 227 228 227 223 219 217 217 218 220 222 224 227 229 231 232 234 235 236 236 235 233 232 231 229 227 224 220 218 218 220 223
323 322 320 318 316 314 312 311 310 309 309 308 308 307 306 304 303 302 300 297 293 290 287 284 278 273 267 260 253 249 247 245 244 245 244 240 238 238 236 232 228 227 226 225 225 227 228 229 230 229 228 227 226 226 227 227 225 222 219 217 218 219 220 221 223 226 228 231 234 236 237 236 235 232 230 229 228 227 226 225 222 219 218 219 221
324 323 321 318 316 315 313 312 311 311 310 310 310 310 309 307 306 304 301 299 295 290 286 282 277 271 265 257 251 247 244 243 242 242 242 239 235 234 232 229 227 226 224 224 224 225 226 228 228 228 227 226 225 225 225 225 223 221 219 218 219 219 219 220 222 224 227 230 233 235 235 235 233 231 228 227 226 225 226 226 225 222 219 218 220
326 324 321 319 317 315 314 313 312 311 311 311 310 310 310 309 308 306 304 300 296 291 286 281 276 269 262 255 248 244 241 240 239 238 237 234 231 230 229 227 226 226 225 224 223 223 224 226 227 227 227 226 224 223 223 223 221 220 219 219 219 219 220 221 222 223 225 227 229 231 233 234 233 232 230 227 226 224 224 226 227 225 221 219 219
327 326 323 321 318 317 315 314 313 312 311 311 311 311 310 310 310 309 306 302 298 293 287 281 274 267 259 253 247 242 239 237 236 235 234 232 229 228 227 226 225 226 226 225 223 223 223 225 226 226 226 226 225 223 223 223 222 221 220 220 220 220 220 221 221 222 223 225 228 230 231 232 232 231 230 229 227 225 223 224 226 227 225 221 219
330 329 326 324 322 320 319 317 316 315 314 313 313 312 312 311 311 310 308 304 300 295 289 283 275 266 257 250 246 243 240 236 234 232 232 230 228 226 225 225 224 225 225 224 223 223 223 224 226 227 227 227 226 225 224 223 222 221 220 220 220 220 220 220 221 221 222 223 225 227 229 229 229 229 229 228 227 225 223 222 223 225 225 222 220
332 331 329 327 325 323 322 320 318 317 316 315 314 313 313 312 311 310 308 305 301 296 291 284 276 266 256 248 245 243 241 237 234 232 231 229 227 225 225 224 224 224 224 223 222 222 223 224 225 226 227 227 226 225 224 223 222 221 220 219 219 219 219 219 220 220 221 222 223 226 227 227 227 226 226 226 225 224 223 222 221 222 223 222 220
335 332 330 329 327 325 324 322 320 318 317 316 315 315 314 313 312 311 309 305 302 297 292 285 277 268 257 247 242 241 241 239 236 233 232 231 229 226 225 224 224 224 223 223 222 222 223 224 224 225 226 227 226 225 224 223 222 220 219 219 219 219 219 219 219 219 220 221 223 224 225 225 225 224 224 224 223 222 222 222 221 221 221 221 220
337 334 332 330 329 327 325 324 322 321 320 318 317 316 315 314 313 312 310 307 303 298 292 286 279 270 260 248 240 237 238 238 237 235 233 231 229 227 226 225 225 224 223 223 222 222 223 223 223 224 225 226 226 225 224 223 222 220 219 219 219 219 219 219 219 218 219 220 222 223 224 224 224 223 223 223 221 220 220 220 220 220 220 220 220
339 337 334 332 331 329 328 326 325 323 322 320 319 318 317 317 316 314 312 309 305 300 294 287 279 272 263 252 241 234 232 234 235 235 233 231 229 228 227 227 226 225 223 223 223 223 223 223 223 223 224 225 226 226 225 223 222 221 220 219 218 219 218 218 218 218 218 219 221 222 223 223 223 222 222 222 221 219 218 218 219 220 220 220 220
340 339 336 333 331 331 330 328 327 325 324 323 322 321 320 319 317 315 313 310 307 302 296 288 280 273 265 256 245 236 230 229 231 233 234 232 229 227 227 228 228 226 224 223 223 223 223 223 223 222 222 223 224 225 224 224 222 221 220 219 219 218 218 218 218 218 218 219 220 221 222 222 222 222 221 220 220 219 218 218 219 219 220 220 220
341 340 338 335 332 331 330 330 328 327 325 324 323 322 320 319 318 316 314 312 308 304 298 291 282 274 266 258 250 241 232 227 227 229 232 233 230 227 226 228 228 228 226 224 223 223 223 224 223 222 222 222 222 223 223 223 222 221 221 220 219 219 218 218 218 217 217 218 220 220 220 221 221 221 221 220 219 219 218 218 218 219 220 220 219
341 341 340 338 334 331 330 329 329 328 326 325 324 322 321 320 319 317 316 313 311 306 301 294 285 276 267 260 252 244 236 230 226 225 228 231 231 229 227 227 228 228 228 225 223 222 223 223 223 222 222 221 221 222 222 222 222 221 220 220 220 219 219 218 217 217 217 218 219 220 220 220 220 220 220 220 219 218 218 217 217 218 219 220 219
341 341 341 339 337 334 331 329 328 328 327 326 325 323 322 321 319 318 316 314 312 308 304 297 289 279 270 262 253 246 240 233 228 225 225 227 229 229 228 227 227 228 228 227 225 223 222 222 222 222 222 221 221 221 221 221 221 220 220 219 219 219 219 218 217 216 216 217 218 219 220 220 219 219 220 219 219 218 217 217 216 217 218 219 219
340 340 341 340 339 337 334 331 329 328 327 326 325 324 323 321 319 317 316 314 312 309 305 300 292 283 274 265 256 249 242 236 231 227 225 225 226 227 227 226 226 227 227 228 227 225 223 221 221 221 221 221 221 221 221 221 221 221 220 219 218 218 218 218 217 216 216 216 218 219 219 219 219 219 219 218 218 217 217 216 215 216 217 218 219
339 340 340 340 340 339 337 335 332 330 328 327 326 325 323 321 320 317 315 313 311 309 306 301 295 287 278 269 259 252 245 239 234 229 226 225 226 227 226 226 226 226 226 227 228 227 225 223 222 221 221 221 221 221 221 222 222 222 221 220 219 218 217 217 217 216 216 216 217 218 219 219 219 218 218 218 217 217 216 216 215 215 215 216 218
338 338 339 340 340 340 339 338 336 333 331 328 326 325 323 322 320 318 316 314 311 309 307 304 298 291 282 273 264 255 248 242 237 232 227 224 224 226 227 227 226 226 226 226 226 227 226 225 224 222 221 221 221 221 222 222 222 222 222 222 220 219 218 217 216 216 216 217 218 219 219 220 219 219 218 218 217 217 217 216 216 215 215 216 216
336 337 338 339 340 340 339 339 337 336 333 331 328 326 324 322 321 319 317 315 312 310 308 305 301 295 287 279 269 260 251 244 240 236 231 226 224 224 226 227 227 226 226 226 226 226 226 226 225 224 223 222 221 221 221 222 223 223 223 223 222 221 220 219 218 217 216 217 218 219 219 220 220 219 219 218 218 218 218 217 217 217 216 216 216
336 336 337 338 338 339 339 338 338 337 335 333 330 327 325 323 321 319 318 316 314 311 308 306 303 298 291 284 275 266 257 248 242 238 235 231 226 223 224 225 226 227 227 227 226 226 226 226 226 226 225 224 222 221 221 221 222 223 223 223 223 223 222 221 220 218 217 217 218 219 219 220 220 220 219 219 218 218 218 218 218 218 218 218 218
336 336 335 336 336 337 337 337 337 336 335 334 332 329 326 323 320 319 317 315 313 310 308 305 303 299 294 288 281 273 263 254 246 240 236 234 230 226 224 223 225 226 226 227 227 227 226 225 225 225 226 225 224 223 222 221 221 222 222 223 223 223 223 223 222 220 219 218 218 218 219 219 220 220 219 219 219 219 219 219 219 219 219 219 219
Height
5455 5451 5446 5441 5437 5432 5427 5422 5418 5414 5410 5406 5402 5398 5394 5391 5388 5385 5380 5376 5371 5367 5363 5359 5355 5353 5349 5345 5340 5335 5330 5325 5320 5314 5309 5303 5299 5295 5290 5286 5284 5283 5283 5284 5287 5289 5292 5295 5298 5300 5302 5305 5308 5311 5314 5317 5321 5325 5328 5331 5334 5337 5339 5341 5345 5347 5346 5347 5349 5352 5355 5358 5359 5361 5363 5364 5366 5367 5368 5368 5368 5369 5370 5372 5375
5444 5440 5435 5430 5425 5421 5416 5411 5407 5403 5399 5395 5391 5387 5383 5380 5377 5375 5371 5366 5362 5358 5353 5349 5345 5341 5338 5334 5329 5325 5320 5315 5310 5305 5299 5295 5291 5287 5284 5281 5279 5279 5278 5280 5282 5284 5286 5289 5292 5294 5296 5298 5301 5303 5306 5309 5313 5317 5320 5323 5326 5329 5331 5333 5337 5339 5339 5340 5342 5344 5348 5351 5352 5353 5355 5357 5358 5360 5361 5361 5361 5361 5362 5364 5367
5432 5428 5423 5419 5413 5409 5404 5400 5396 5391 5387 5383 5380 5375 5372 5369 5366 5363 5361 5357 5353 5349 5345 5340 5336 5332 5329 5325 5320 5315 5310 5305 5300 5295 5290 5286 5283 5280 5277 5275 5274 5274 5274 5275 5277 5278 5280 5283 5286 5288 5289 5291 5294 5296 5299 5302 5306 5309 5313 5315 5318 5321 5323 5326 5329 5331 5332 5333 5335 5337 5340 5343 5345 5346 5348 5350 5351 5353 5353 5354 5354 5354 5354 5356 5359
5420 5416 5412 5407 5402 5397 5392 5388 5384 5380 5376 5372 5368 5365 5361 5358 5355 5352 5350 5347 5343 5340 5336 5332 5328 5324 5320 5316 5311 5306 5301 5296 5292 5287 5282 5278 5276 5273 5270 5269 5268 5269 5270 5270 5271 5273 5275 5277 5280 5281 5283 5285 5287 5290 5292 5295 5298 5302 5305 5308 5311 5313 5316 5319 5321 5323 5325 5326 5328 5330 5333 5336 5338 5339 5341 5343 5344 5345 5346 5347 5347 5347 5348 5349 5351
5408 5403 5399 5395 5391 5386 5381 5377 5373 5369 5365 5361 5357 5354 5351 5347 5344 5341 5339 5336 5333 5330 5326 5323 5319 5315 5311 5307 5302 5297 5293 5288 5283 5279 5274 5271 5268 5266 5264 5262 5262 5263 5264 5265 5266 5268 5269 5271 5273 5275 5276 5279 5281 5283 5286 5288 5291 5295 5298 5301 5304 5306 5309 5311 5314 5316 5318 5320 5321 5323 5326 5329 5331 5333 5334 5336 5337 5338 5339 5340 5340 5340 5341 5342 5344
5394 5390 5386 5382 5378 5374 5370 5366 5362 5358 5354 5351 5347 5344 5340 5337 5334 5331 5328 5325 5323 5320 5317 5313 5309 5305 5302 5298 5293 5289 5284 5280 5276 5271 5267 5264 5262 5260 5258 5256 5256 5257 5258 5260 5261 5262 5263 5264 5266 5268 5270 5273 5275 5277 5279 5282 5285 5288 5291 5294 5297 5300 5302 5304 5306 5309 5311 5313 5315 5317 5319 5322 5324 5326 5328 5329 5331 5332 5333 5333 5334 5334 5335 5337 5339
5381 5376 5372 5369 5365 5362 5358 5355 5351 5347 5344 5340 5337 5333 5330 5327 5324 5321 5318 5315 5312 5310 5307 5304 5300 5296 5292 5288 5284 5280 5276 5272 5268 5264 5260 5257 5255 5253 5252 5251 5250 5251 5252 5254 5255 5256 5257 5258 5260 5262 5264 5267 5269 5271 5273 5276 5278 5281 5284 5287 5290 5293 5295 5297 5299 5302 5304 5306 5308 5311 5313 5315 5318 5319 5321 5323 5324 5325 5327 5328 5328 5328 5330 5332 5333
5368 5364 5360 5356 5353 5349 5346 5343 5340 5336 5333 5329 5326 5323 5320 5317 5314 5311 5308 5304 5302 5299 5297 5294 5291 5287 5283 5279 5275 5272 5268 5265 5261 5257 5253 5250 5248 5247 5245 5245 5244 5245 5246 5247 5248 5249 5251 5252 5254 5256 5259 5261 5263 5265 5267 5270 5272 5275 5278 5280 5283 5286 5289 5290 5292 5295 5297 5300 5302 5304 5306 5309 5311 5313 5315 5317 5318 5319 5321 5322 5322 5323 5324 5326 5327
5356 5352 5348 5344 5341 5338 5335 5332 5329 5325 5322 5319 5316 5313 5310 5307 5304 5301 5298 5294 5292 5289 5286 5283 5281 5278 5274 5270 5267 5263 5260 5257 5253 5249 5246 5243 5242 5241 5239 5239 5238 5239 5240 5241 5242 5243 5244 5246 5248 5250 5253 5255 5257 5259 5261 5264 5267 5269 5271 5274 5277 5280 5282 5284 5286 5288 5291 5294 5296 5298 5301 5303 5305 5307 5309 5311 5312 5313 5315 5316 5317 5317 5319 5320 5322
5345 5341 5337 5333 5330 5327 5324 5321 5318 5314 5311 5308 5306 5303 5300 5297 5294 5291 5287 5284 5281 5279 5276 5273 5271 5268 5265 5261 5258 5255 5252 5249 5245 5242 5239 5236 5235 5234 5233 5233 5232 5233 5234 5236 5237 5238 5239 5240 5242 5244 5246 5249 5251 5253 5255 5258 5261 5263 5265 5268 5271 5274 5276 5278 5279 5282 5285 5287 5289 5292 5295 5297 5299 5301 5302 5304 5306 5308 5309 5310 5311 5312 5314 5315 5316
5334 5330 5326 5323 5319 5316 5313 5310 5307 5304 5301 5298 5295 5293 5290 5287 5284 5281 5278 5275 5272 5269 5266 5264 5261 5259 5256 5253 5250 5247 5244 5241 5237 5234 5232 5230 5229 5228 5227 5226 5226 5227 5228 5229 5231 5232 5233 5234 5236 5238 5240 5243 5245 5247 5250 5252 5255 5257 5260 5262 5265 5267 5269 5271 5273 5276 5278 5281 5283 5286 5289 5291 5293 5295 5296 5298 5300 5302 5303 5305 5306 5307 5308 5309 5310
5325 5320 5316 5313 5309 5306 5303 5300 5297 5294 5291 5289 5286 5283 5280 5277 5274 5272 5269 5266 5263 5260 5257 5255 5252 5250 5247 5244 5241 5238 5236 5233 5230 5227 5225 5224 5223 5222 5221 5221 5221 5221 5222 5223 5225 5226 5227 5229 5230 5232 5234 5236 5239 5242 5244 5247 5249 5252 5254 5257 5259 5261 5263 5265 5267 5270 5272 5275 5278 5280 5283 5285 5287 5289 5291 5292 5294 5296 5298 5299 5301 5302 5303 5304 5305
5316 5312 5307 5303 5300 5297 5294 5291 5288 5285 5282 5280 5277 5274 5271 5268 5265 5262 5259 5257 5254 5251 5248 5245 5243 5240 5238 5235 5232 5230 5228 5225 5222 5220 5219 5217 5216 5216 5216 5215 5215 5215 5216 5217 5218 5220 5221 5222 5224 5226 5228 5230 5233 5236 5238 5241 5243 5246 5248 5251 5253 5255 5257 5259 5262 5264 5266 5269 5272 5274 5277 5279 5281 5283 5285 5287 5288 5290 5292 5293 5295 5297 5298 5299 5301
5308 5303 5299 5295 5291 5288 5285 5282 5279 5276 5274 5271 5268 5265 5262 5259 5256 5253 5251 5248 5245 5242 5239 5236 5234 5231 5228 5226 5223 5221 5219 5217 5215 5213 5212 5211 5210 5209 5210 5210 5210 5209 5210 5211 5212 5214 5215 5216 5218 5220 5222 5224 5227 5229 5232 5235 5238 5240 5243 5245 5247 5249 5251 5254 5256 5258 5260 5263 5266 5268 5271 5273 5275 5278 5280 5281 5283 5285 5286 5288 5290 5291 5292 5294 5295
5300 5295 5291 5287 5283 5280 5277 5274 5271 5268 5265 5262 5260 5257 5254 5251 5247 5245 5242 5239 5236 5233 5230 5228 5225 5222 5219 5217 5215 5213 5211 5209 5208 5206 5206 5205 5204 5203 5204 5205 5205 5204 5204 5204 5206 5208 5209 5211 5212 5214 5216 5218 5221 5223 5226 5229 5232 5235 5237 5240 5242 5244 5246 5248 5250 5252 5255 5257 5260 5263 5265 5267 5269 5272 5274 5275 5277 5279 5281 5283 5284 5286 5287 5289 5290
5292 5288 5284 5280 5276 5272 5269 5266 5263 5260 5257 5254 5251 5248 5245 5242 5239 5236 5233 5230 5227 5224 5221 5219 5216 5214 5211 5209 5207 5205 5202 5201 5200 5199 5199 5198 5197 5197 5198 5198 5198 5199 5199 5199 5200 5201 5203 5205 5207 5209 5211 5213 5215 5218 5220 5223 5226 5229 5232 5234 5236 5238 5240 5242 5244 5247 5250 5252 5254 5257 5259 5262 5264 5266 5268 5270 5272 5274 5276 5277 5279 5280 5282 5283 5284
5285 5280 5276 5272 5268 5264 5261 5258 5255 5252 5248 5245 5242 5239 5236 5233 5230 5227 5225 5222 5219 5215 5212 5210 5208 5205 5203 5200 5198 5197 5195 5193 5193 5192 5192 5191 5191 5191 5192 5192 5192 5193 5193 5193 5194 5195 5197 5200 5202 5204 5206 5207 5209 5212 5215 5218 5221 5223 5226 5228 5230 5233 5235 5237 5239 5242 5244 5247 5249 5252 5254 5256 5258 5260 5263 5265 5266 5268 5270 5272 5274 5275 5276 5278 5279
5277 5272 5268 5264 5260 5256 5253 5249 5246 5243 5240 5237 5234 5230 5227 5224 5221 5218 5215 5213 5210 5207 5204 5202 5199 5197 5194 5192 5190 5189 5187 5186 5185 5185 5185 5184 5185 5185 5185 5186 5186 5187 5187 5188 5188 5190 5191 5194 5197 5198 5200 5202 5204 5207 5210 5212 5215 5218 5220 5222 5225 5228 5229 5231 5234 5237 5239 5241 5244 5246 5249 5251 5253 5255 5257 5259 5261 5263 5265 5267 5268 5270 5271 5273 5275
5269 5265 5260 5256 5252 5248 5244 5241 5237 5234 5231 5228 5225 5221 5219 5216 5213 5210 5207 5204 5202 5199 5196 5194 5191 5189 5186 5184 5182 5181 5179 5178 5178 5178 5178 5178 5178 5179 5179 5179 5180 5181 5182 5182 5183 5185 5186 5188 5191 5193 5194 5196 5199 5202 5204 5207 5210 5212 5214 5217 5220 5222 5224 5226 5229 5231 5234 5236 5239 5241 5243 5246 5248 5250 5251 5253 5255 5257 5259 5261 5263 5265 5266 5268 5270
5261 5257 5252 5248 5244 5239 5235 5232 5228 5225 5222 5219 5216 5212 5209 5207 5204 5201 5198 5196 5193 5190 5188 5185 5183 5180 5178 5176 5174 5173 5172 5171 5171 5171 5171 5171 5172 5172 5173 5173 5174 5174 5176 5177 5178 5179 5181 5183 5186 5188 5189 5191 5194 5196 5199 5202 5205 5207 5209 5212 5214 5216 5218 5221 5224 5226 5229 5231 5233 5236 5238 5240 5243 5244 5246 5248 5250 5251 5253 5256 5258 5259 5262 5264 5266
5253 5249 5244 5240 5235 5231 5227 5223 5219 5216 5212 5210 5207 5203 5200 5197 5195 5192 5190 5187 5185 5182 5179 5177 5174 5172 5170 5168 5167 5166 5165 5165 5165 5165 5165 5165 5165 5166 5167 5167 5168 5169 5170 5171 5172 5174 5176 5178 5180 5182 5184 5186 5189 5191 5194 5197 5199 5201 5204 5207 5208 5210 5213 5216 5219 5221 5224 5226 5228 5231 5233 5235 5237 5239 5241 5243 5244 5246 5248 5250 5253 5255 5257 5259 5261
5245 5241 5236 5232 5227 5223 5219 5214 5211 5207 5204 5201 5198 5195 5192 5189 5186 5183 5181 5178 5176 5173 5171 5168 5166 5164 5162 5160 5159 5158 5158 5158 5158 5158 5158 5158 5159 5160 5161 5162 5162 5163 5165 5166 5167 5168 5170 5173 5175 5177 5179 5181 5184 5187 5189 5191 5194 5196 5199 5201 5203 5206 5209 5211 5214 5217 5219 5221 5223 5226 5228 5230 5232 5234 5235 5237 5239 5241 5243 5245 5248 5250 5252 5255 5257
5237 5232 5228 5223 5219 5215 5210 5206 5202 5199 5195 5192 5189 5186 5184 5181 5178 5175 5172 5170 5167 5165 5162 5160 5158 5156 5154 5153 5152 5151 5151 5152 5151 5151 5151 5152 5153 5154 5155 5156 5157 5158 5159 5160 5162 5163 5165 5167 5170 5172 5174 5176 5179 5182 5184 5186 5188 5191 5194 5196 5199 5201 5204 5207 5209 5212 5214 5216 5218 5220 5223 5225 5227 5228 5230 5232 5234 5236 5238 5240 5243 5246 5248 5250 5252
5228 5224 5219 5214 5210 5206 5202 5198 5194 5190 5186 5183 5180 5177 5175 5172 5169 5166 5164 5161 5158 5156 5154 5152 5150 5149 5147 5146 5145 5144 5144 5145 5145 5145 5145 5146 5147 5148 5149 5150 5152 5153 5154 5155 5156 5158 5160 5162 5164 5166 5169 5171 5173 5176 5178 5180 5183 5186 5189 5191 5194 5196 5199 5202 5205 5207 5209 5211 5213 5215 5217 5219 5221 5223 5225 5227 5229 5231 5234 5236 5238 5241 5244 5246 5248
5220 5215 5210 5205 5201 5197 5193 5188 5184 5180 5177 5173 5170 5168 5166 5163 5160 5158 5155 5153 5150 5148 5146 5144 5142 5141 5140 5139 5138 5138 5138 5138 5139 5139 5140 5140 5141 5142 5143 5145 5146 5148 5148 5150 5151 5153 5155 5157 5159 5161 5164 5166 5168 5171 5173 5175 5178 5182 5185 5187 5189 5191 5195 5198 5199 5201 5204 5206 5208 5210 5212 5214 5216 5218 5219 5222 5224 5227 5229 5231 5234 5237 5240 5242 5244
5211 5205 5200 5196 5191 5187 5183 5179 5176 5172 5168 5164 5160 5158 5156 5154 5152 5149 5146 5144 5142 5139 5137 5136 5135 5133 5132 5132 5131 5131 5131 5132 5133 5133 5134 5134 5136 5137 5138 5139 5141 5142 5143 5144 5146 5148 5150 5152 5154 5156 5159 5161 5163 5166 5168 5171 5174 5178 5181 5183 5185 5187 5190 5192 5194 5196 5199 5201 5203 5205 5207 5209 5211 5213 5215 5217 5220 5222 5224 5227 5229 5232 5235 5238 5240
5201 5196 5191 5186 5182 5177 5173 5170 5167 5163 5159 5155 5151 5149 5147 5145 5142 5140 5138 5135 5133 5131 5129 5128 5127 5126 5125 5124 5125 5125 5125 5126 5126 5127 5128 5129 5130 5131 5132 5133 5135 5136 5137 5139 5141 5143 5144 5146 5149 5152 5154 5156 5159 5161 5164 5167 5170 5173 5176 5178 5179 5181 5184 5186 5189 5191 5194 5196 5198 5200 5202 5204 5206 5208 5210 5212 5215 5218 5220 5223 5225 5228 5231 5234 5236
5190 5185 5180 5176 5171 5167 5163 5160 5157 5154 5150 5146 5142 5139 5137 5136 5134 5132 5129 5127 5125 5123 5121 5120 5119 5118 5118 5118 5118 5118 5119 5119 5120 5121 5122 5123 5124 5125 5127 5128 5129 5130 5132 5133 5135 5137 5139 5142 5144 5147 5150 5152 5154 5157 5160 5162 5165 5168 5171 5173 5174 5176 5178 5181 5184 5187 5189 5191 5193 5195 5197 5199 5201 5203 5205 5207 5210 5213 5216 5219 5222 5224 5227 5230 5232
5180 5175 5170 5166 5161 5158 5154 5150 5147 5144 5141 5138 5134 5128 5125 5125 5126 5124 5121 5118 5116 5115 5113 5112 5111 5111 5111 5111 5111 5111 5112 5113 5114 5115 5116 5117 5118 5120 5121 5122 5124 5125 5126 5128 5130 5132 5135 5138 5140 5143 5145 5147 5150 5153 5155 5158 5160 5163 5166 5168 5170 5172 5174 5176 5179 5182 5185 5187 5188 5190 5192 5194 5196 5199 5201 5203 5206 5209 5212 5215 5218 5221 5224 5226 5228
5171 5166 5161 5156 5152 5148 5144 5141 5137 5134 5131 5130 5127 5122 5116 5113 5113 5115 5113 5110 5107 5106 5106 5105 5104 5104 5104 5104 5104 5105 5105 5107 5108 5109 5110 5111 5113 5114 5115 5117 5118 5120 5121 5123 5125 5128 5131 5133 5136 5138 5141 5143 5146 5148 5151 5153 5155 5158 5161 5163 5165 5167 5169 5172 5174 5177 5180 5182 5183 5185 5187 5189 5191 5194 5196 5198 5201 5204 5208 5211 5214 5217 5220 5222 5224
5161 5156 5152 5147 5142 5138 5135 5131 5128 5125 5122 5119 5118 5116 5112 5106 5102 5103 5104 5102 5099 5098 5098 5097 5096 5096 5096 5097 5097 5098 5099 5100 5102 5103 5104 5105 5107 5108 5110 5111 5113 5115 5117 5119 5121 5124 5126 5129 5131 5134 5136 5139 5141 5144 5146 5148 5150 5153 5156 5158 5161 5163 5165 5167 5170 5172 5175 5177 5179 5181 5183 5185 5187 5189 5192 5194 5197 5200 5204 5207 5210 5214 5217 5218 5220
5152 5147 5143 5138 5133 5129 5126 5122 5119 5116 5114 5111 5108 5107 5105 5102 5097 5094 5093 5094 5092 5090 5090 5089 5089 5089 5089 5090 5090 5091 5093 5094 5096 5097 5098 5100 5101 5103 5104 5106 5108 5110 5112 5115 5117 5119 5122 5124 5127 5129 5132 5135 5137 5139 5141 5143 5146 5149 5151 5153 5156 5158 5161 5164 5166 5168 5170 5172 5174 5176 5178 5181 5183 5186 5188 5191 5193 5196 5199 5203 5206 5209 5212 5214 5216
5142 5138 5133 5129 5125 5121 5117 5114 5111 5108 5106 5103 5101 5098 5097 5096 5093 5089 5086 5085 5084 5083 5082 5082 5082 5082 5082 5083 5084 5086 5087 5089 5090 5092 5093 5094 5096 5097 5099 5101 5102 5105 5107 5110 5112 5115 5117 5119 5122 5125 5127 5130 5132 5134 5137 5139 5141 5144 5146 5149 5151 5154 5157 5160 5162 5164 5165 5167 5170 5172 5175 5177 5180 5182 5184 5187 5189 5192 5195 5198 5201 5204 5208 5210 5212
5133 5128 5124 5120 5116 5113 5109 5106 5104 5101 5098 5096 5094 5092 5089 5088 5086 5084 5081 5079 5077 5076 5076 5075 5075 5075 5076 5077 5078 5080 5082 5083 5085 5086 5087 5089 5090 5092 5094 5095 5097 5099 5102 5105 5108 5110 5112 5115 5117 5120 5122 5125 5127 5130 5132 5134 5137 5139 5141 5144 5147 5149 5152 5155 5157 5159 5161 5164 5166 5168 5170 5173 5175 5178 5180 5183 5185 5188 5190 5193 5196 5200 5203 5206 5208
5126 5121 5115 5111 5108 5105 5101 5099 5096 5094 5092 5089 5087 5085 5083 5081 5079 5078 5076 5074 5072 5070 5070 5069 5069 5069 5070 5071 5073 5074 5075 5077 5079 5080 5081 5083 5085 5086 5089 5091 5093 5095 5097 5100 5103 5106 5108 5110 5112 5115 5117 5120 5122 5125 5127 5129 5132 5134 5137 5139 5142 5145 5148 5150 5153 5155 5158 5160 5162 5164 5166 5168 5171 5174 5176 5179 5182 5184 5187 5190 5192 5195 5199 5202 5204
5120 5115 5109 5105 5101 5098 5095 5092 5089 5087 5085 5083 5081 5078 5077 5075 5073 5071 5070 5068 5066 5065 5064 5064 5063 5063 5064 5065 5067 5068 5070 5072 5073 5074 5075 5077 5079 5081 5084 5086 5088 5090 5093 5096 5098 5101 5103 5105 5108 5110 5113 5115 5118 5120 5123 5125 5127 5130 5132 5135 5138 5141 5143 5146 5149 5151 5153 5155 5158 5160 5162 5165 5167 5170 5172 5176 5178 5181 5183 5186 5188 5191 5194 5198 5200
5114 5108 5104 5099 5096 5093 5089 5086 5083 5081 5078 5077 5075 5072 5070 5069 5067 5065 5064 5062 5061 5060 5059 5058 5058 5058 5059 5060 5062 5063 5065 5066 5067 5069 5070 5072 5074 5076 5078 5081 5083 5086 5088 5091 5094 5096 5099 5101 5103 5106 5108 5111 5113 5116 5118 5121 5123 5125 5128 5131 5133 5136 5139 5142 5144 5147 5149 5151 5154 5156 5158 5161 5163 5166 5169 5172 5174 5177 5180 5182 5185 5187 5190 5193 5196
5108 5102 5098 5094 5091 5088 5085 5081 5079 5076 5073 5071 5069 5067 5065 5063 5061 5060 5058 5057 5056 5054 5054 5053 5053 5053 5053 5054 5056 5058 5060 5061 5062 5064 5065 5067 5069 5071 5074 5076 5078 5081 5084 5087 5089 5092 5094 5096 5099 5101 5104 5106 5109 5111 5114 5116 5118 5121 5124 5126 5129 5132 5134 5137 5140 5142 5145 5147 5149 5152 5154 5157 5159 5162 5165 5167 5170 5173 5176 5179 5181 5184 5186 5189 5192
5105 5099 5094 5090 5086 5083 5080 5077 5074 5072 5069 5066 5064 5062 5060 5058 5056 5055 5053 5052 5051 5050 5049 5048 5048 5048 5049 5049 5051 5052 5054 5056 5058 5059 5061 5063 5064 5067 5069 5071 5073 5076 5079 5082 5085 5087 5090 5092 5095 5097 5100 5102 5104 5107 5109 5111 5114 5116 5119 5122 5124 5127 5130 5133 5135 5138 5140 5143 5145 5148 5150 5152 5155 5158 5160 5163 5166 5169 5172 5175 5178 5180 5182 5185 5188
5102 5096 5091 5087 5083 5079 5075 5072 5070 5067 5065 5062 5060 5057 5056 5054 5052 5050 5049 5047 5046 5045 5044 5044 5044 5044 5044 5045 5046 5047 5049 5052 5053 5055 5057 5058 5060 5062 5064 5066 5069 5071 5074 5077 5080 5083 5085 5088 5090 5093 5095 5098 5100 5102 5105 5107 5110 5112 5115 5117 5120 5123 5125 5128 5131 5134 5136 5138 5141 5143 5146 5148 5151 5153 5156 5159 5162 5165 5168 5171 5174 5176 5179 5181 5184
5098 5092 5087 5083 5080 5076 5072 5068 5065 5062 5060 5058 5055 5053 5051 5049 5048 5046 5045 5043 5042 5041 5040 5039 5039 5039 5040 5040 5041 5042 5044 5046 5048 5050 5052 5054 5056 5058 5060 5062 5064 5067 5070 5072 5075 5078 5081 5083 5086 5088 5091 5093 5096 5098 5100 5103 5105 5108 5110 5113 5116 5118 5121 5124 5127 5129 5132 5134 5137 5139 5142 5144 5146 5149 5152 5154 5157 5161 5164 5167 5169 5172 5175 5177 5180
5094 5089 5084 5080 5076 5073 5069 5066 5062 5059 5056 5054 5051 5049 5047 5045 5044 5042 5041 5039 5038 5037 5036 5035 5035 5035 5035 5036 5037 5038 5039 5041 5043 5045 5048 5050 5052 5054 5056 5057 5060 5062 5065 5068 5070 5073 5076 5078 5081 5084 5086 5089 5091 5094 5096 5098 5101 5103 5106 5109 5111 5114 5117 5120 5123 5125 5128 5130 5133 5135 5138 5140 5142 5145 5147 5150 5153 5156 5159 5162 5165 5168 5171 5173 5176
5090 5085 5080 5076 5072 5069 5066 5063 5059 5056 5053 5050 5048 5046 5044 5042 5040 5038 5037 5036 5034 5033 5032 5031 5031 5031 5031 5032 5033 5034 5035 5036 5038 5040 5043 5045 5047 5049 5051 5053 5055 5058 5060 5063 5066 5068 5071 5074 5077 5079 5082 5084 5087 5089 5092 5094 5097 5099 5102 5104 5107 5110 5113 5116 5118 5121 5124 5126 5129 5131 5134 5136 5138 5141 5143 5146 5149 5152 5155 5158 5161 5164 5166 5169 5172
5088 5082 5077 5072 5068 5065 5061 5059 5056 5053 5050 5047 5044 5042 5040 5038 5036 5035 5033 5032 5031 5029 5028 5027 5027 5027 5027 5027 5028 5029 5030 5032 5033 5035 5037 5040 5042 5045 5047 5049 5051 5053 5056 5058 5061 5063 5066 5069 5072 5074 5077 5080 5082 5085 5087 5090 5092 5095 5097 5100 5103 5105 5108 5111 5114 5117 5119 5122 5125 5127 5130 5132 5135 5137 5139 5142 5145 5147 5150 5153 5156 5159 5162 5165 5167
5086 5081 5076 5071 5066 5062 5058 5055 5052 5049 5046 5043 5041 5038 5036 5034 5033 5031 5030 5028 5027 5026 5025 5024 5023 5023 5023 5023 5024 5025 5026 5027 5029 5031 5032 5034 5037 5040 5042 5044 5046 5049 5051 5054 5056 5059 5061 5064 5067 5070 5072 5075 5077 5080 5082 5085 5088 5090 5093 5095 5098 5101 5104 5107 5109 5112 5115 5118 5120 5123 5126 5128 5131 5133 5136 5138 5141 5143 5146 5149 5152 5155 5157 5160 5163
5083 5078 5074 5069 5064 5060 5056 5052 5049 5046 5043 5040 5038 5035 5033 5031 5029 5028 5026 5025 5023 5022 5021 5020 5019 5019 5019 5019 5020 5021 5022 5023 5024 5026 5028 5030 5032 5034 5037 5039 5042 5044 5047 5049 5052 5054 5057 5059 5062 5065 5067 5070 5073 5075 5078 5080 5083 5086 5088 5091 5093 5096 5099 5102 5105 5107 5110 5113 5116 5119 5122 5124 5127 5129 5132 5134 5137 5139 5142 5145 5147 5150 5153 5156 5159
5080 5075 5071 5066 5062 5057 5053 5049 5046 5043 5040 5037 5034 5032 5030 5028 5026 5024 5023 5022 5020 5019 5018 5017 5016 5015 5015 5015 5015 5016 5017 5018 5020 5021 5023 5025 5027 5029 5032 5034 5036 5039 5042 5044 5047 5050 5052 5055 5057 5059 5062 5065 5068 5070 5073 5075 5078 5081 5084 5086 5089 5092 5094 5097 5100 5103 5105 5108 5112 5114 5117 5120 5122 5125 5127 5130 5133 5135 5138 5140 5143 5146 5149 5152 5155
5076 5072 5067 5063 5058 5054 5051 5047 5043 5040 5037 5034 5031 5029 5026 5024 5022 5021 5019 5018 5017 5016 5014 5013 5012 5012 5011 5011 5011 5012 5013 5014 5015 5017 5018 5020 5022 5025 5027 5029 5032 5034 5036 5039 5042 5045 5047 5050 5053 5055 5057 5060 5063 5065 5068 5071 5073 5076 5079 5082 5084 5087 5090 5092 5095 5098 5101 5104 5107 5110 5113 5115 5118 5121 5123 5126 5128 5131 5133 5136 5139 5142 5145 5147 5150
5072 5068 5063 5059 5055 5051 5047 5044 5040 5037 5034 5031 5028 5025 5023 5021 5019 5017 5016 5014 5013 5012 5011 5010 5009 5008 5007 5007 5007 5008 5008 5009 5011 5012 5014 5015 5017 5020 5022 5024 5027 5029 5032 5034 5037 5039 5042 5045 5048 5051 5053 5055 5058 5060 5063 5066 5068 5071 5074 5077 5079 5082 5085 5088 5090 5093 5096 5099 5102 5105 5108 5111 5114 5116 5119 5121 5124 5126 5129 5132 5135 5137 5140 5143 5146
5067 5063 5059 5055 5051 5047 5044 5040 5037 5034 5031 5028 5025 5022 5020 5018 5016 5014 5012 5011 5009 5008 5008 5007 5006 5005 5004 5003 5003 5003 5004 5005 5006 5007 5009 5011 5013 5014 5017 5019 5022 5024 5027 5029 5032 5034 5037 5040 5043 5046 5048 5051 5053 5055 5058 5061 5064 5066 5069 5072 5075 5077 5080 5083 5086 5088 5091 5094 5097 5101 5104 5106 5109 5112 5114 5117 5119 5122 5125 5127 5130 5133 5136 5138 5141
5063 5059 5055 5051 5047 5044 5040 5037 5033 5030 5027 5024 5022 5019 5017 5015 5013 5011 5009 5008 5006 5005 5004 5003 5002 5001 5000 5000 4999 4999 5000 5000 5001 5002 5004 5006 5008 5010 5012 5014 5016 5019 5021 5024 5027 5029 5032 5034 5037 5040 5043 5046 5048 5051 5053 5056 5059 5061 5064 5067 5070 5073 5075 5078 5081 5084 5086 5089 5092 5096 5099 5102 5105 5107 5110 5112 5115 5118 5120 5123 5126 5128 5131 5134 5137